Location: LDNL
(36.4545°S, 141.6685°E)
Time: 11:05:21
(UTC+10:00)

Courier 1B - All Passes

Search period start: 08 August 2022 00:00
Search period end: 18 August 2022 00:00
Orbit: 963 x 1209 km, 28.3° (Epoch: 07 August)

Date Brightness Start Highest point End Pass type
(mag) Time Alt. Az. Time Alt. Az. Time Alt. Az.
08 Aug - 01:14:12 10° NW 01:21:09 35° NNE 01:28:03 10° ENE night (unlit)
08 Aug - 03:07:31 10° WNW 03:14:59 47° N 03:22:14 10° ENE visible
08 Aug - 05:01:44 10° WNW 05:08:49 39° NNW 05:15:35 10° NE visible
08 Aug - 06:57:06 10° WNW 07:02:14 20° NNW 07:07:11 10° NNE visible
08 Aug - 22:31:41 10° NNE 22:33:59 11° NNE 22:36:18 10° NE night (unlit)
09 Aug - 00:20:48 10° NW 00:27:20 30° NNE 00:33:56 10° ENE night (unlit)
09 Aug - 02:13:40 10° WNW 02:21:06 45° N 02:28:25 10° ENE visible
09 Aug - 04:07:40 10° WNW 04:15:00 43° N 04:22:03 10° ENE visible
09 Aug - 06:02:33 10° WNW 06:08:35 25° NNW 06:14:21 10° NNE visible
09 Aug - 23:27:36 10° NNW 23:33:34 24° NNE 23:39:37 10° ENE night (unlit)
10 Aug - 01:19:56 10° WNW 01:27:12 42° N 01:34:30 10° ENE night (unlit)
10 Aug - 03:13:41 10° WNW 03:21:08 46° N 03:28:24 10° ENE visible
10 Aug - 05:08:13 10° WNW 05:14:52 31° NNW 05:21:14 10° NE visible
10 Aug - 07:05:28 10° NW 07:08:06 12° NNW 07:10:42 10° N daylight
10 Aug - 22:34:44 10° NNW 22:39:51 19° NNE 22:45:03 10° ENE night (unlit)
11 Aug - 00:26:18 10° NW 00:33:21 38° NNE 00:40:31 10° ENE night (unlit)
11 Aug - 02:19:45 10° WNW 02:27:14 47° N 02:34:38 10° ENE visible
11 Aug - 04:14:03 10° WNW 04:21:04 36° NNW 04:27:53 10° NE visible
11 Aug - 06:09:54 10° WNW 06:14:29 17° NNW 06:18:57 10° N visible
11 Aug - 21:42:25 10° N 21:46:10 14° NNE 21:50:00 10° ENE night (unlit)
11 Aug - 23:32:50 10° NW 23:39:32 33° NNE 23:46:24 10° ENE night (unlit)
12 Aug - 01:25:55 10° WNW 01:33:20 47° N 01:40:48 10° ENE night (unlit)
12 Aug - 03:19:58 10° WNW 03:27:14 41° NNW 03:34:22 10° NE visible
12 Aug - 05:15:08 10° WNW 05:20:48 22° NNW 05:26:20 10° NNE visible
12 Aug - 22:39:34 10° NW 22:45:46 28° NNE 22:52:10 10° ENE night (unlit)
13 Aug - 00:32:11 10° WNW 00:39:27 45° N 00:46:52 10° ENE night (unlit)
13 Aug - 02:26:00 10° WNW 02:33:22 44° N 02:40:43 10° ENE visible
13 Aug - 04:20:42 10° WNW 04:27:04 27° NNW 04:33:19 10° NNE visible
13 Aug - 21:46:33 10° NNW 21:52:04 23° NNE 21:57:45 10° ENE visible
13 Aug - 23:38:34 10° NW 23:45:35 41° N 23:52:51 10° ENE night (unlit)
14 Aug - 01:32:07 10° WNW 01:39:29 46° N 01:46:56 10° ENE night (unlit)
14 Aug - 03:26:28 10° WNW 03:33:17 32° NNW 03:40:02 10° NE visible
14 Aug - 05:23:02 10° WNW 05:26:41 14° NNW 05:30:16 10° N visible
14 Aug - 20:53:55 10° N 20:58:24 17° NNE 21:03:02 10° ENE visible
14 Aug - 22:45:04 10° NW 22:51:46 36° NNE 22:58:46 10° ENE night (unlit)
15 Aug - 00:38:18 10° WNW 00:45:35 47° N 00:53:04 10° ENE night (unlit)
15 Aug - 02:32:24 10° WNW 02:39:28 37° NNW 02:46:32 10° NE visible
15 Aug - 04:27:54 10° WNW 04:33:00 19° NNW 04:38:01 10° NNE visible
15 Aug - 20:02:03 10° N 20:04:48 12° NNE 20:07:37 10° NE visible
15 Aug - 21:51:45 10° NW 21:58:01 31° NNE 22:04:35 10° ENE visible
15 Aug - 23:44:34 10° WNW 23:51:43 46° N 23:59:08 10° ENE night (unlit)
16 Aug - 01:38:26 10° WNW 01:45:36 41° N 01:52:54 10° ENE night (unlit)
16 Aug - 03:33:19 10° WNW 03:39:16 24° NNW 03:45:10 10° NNE visible
16 Aug - 20:58:37 10° NNW 21:04:19 26° NNE 21:10:17 10° ENE visible
16 Aug - 22:50:58 10° WNW 22:57:53 43° N 23:05:08 10° ENE night (unlit)
17 Aug - 00:44:34 10° WNW 00:51:44 44° N 00:59:08 10° ENE night (unlit)
17 Aug - 02:39:02 10° WNW 02:45:29 29° NNW 02:51:58 10° NE night (unlit)
17 Aug - 04:37:11 10° NW 04:38:51 11° NNW 04:40:31 10° NNW visible
17 Aug - 20:05:47 10° NNW 20:10:41 20° NNE 20:15:47 10° ENE visible
17 Aug - 21:57:28 10° NW 22:04:05 39° NNE 22:11:04 10° ENE visible
